COSMOS 2251 DEB

Satellite information

Favourite Embed

Satellite Type and Status

DEBRISIN ORBIT

Key statistics

Satellite COSMOS 2251 DEB at a glance.

Uptime

11869

Days in orbit

Revolutions

≈ 14.1

Per day

Orbit

LEO

Low Earth Orbit

Inclination

73.7

Latest

Satellite identification and parameters

Extended collection of information and parameters for COSMOS 2251 DEB.

Object identification

Identified? True

Debris? True

Object name: COSMOS 2251 DEB

International designator: 1993-036BLP

Object number (NORAD): 37486

Object ID (CCSDS): 37486

Country: COMMONWEALTH OF INDEPENDENT STATES (CIS)

Current information (Y/N): Y

RCS size: SMALL

Orbital parameters

Period: 101.888 minutes

Inclination: 73.691 deg

SMA: 7226.196 km

Apoapsis: 1013.916 km

Periapsis: 682.207 km

RAAN: 115.8133 deg

Eccentricy: 0.02295182

Argument of periapsis: 344.0125 deg

Mean anomaly: 131.6797 deg

Mean motion: 14.13312304 rev/day

Mean motion (dot): 0.00007046 rev/day2

B* drag term: 0.0029312521 1/REarth

Two-line elements (TLE)

Creation date: Dec. 12, 2025, 10:14 a.m.

Reference frame: TEME

Reference center: EARTH

Epoch: Dec. 12, 2025, 1:37 a.m. UTC

TLE line 0: 0 COSMOS 2251 DEB

TLE line 1: 1 37486U 93036BLP 25346.06784786 .00007046 00000-0 29313-2 0 9992

TLE line 2: 2 37486 73.6910 115.8133 0229518 344.0125 131.6797 14.13312304633608

Live tracking on map

Real-time ground track for satellite COSMOS 2251 DEB.

In-orbit conjunctions

A list of the most updated potential collisions computed for object COSMOS 2251 DEB.

Target Orbit TCA Probability of collision Miss distance Type
TAURUS R/B SSO 2024-11-03 18:19:59 0.0001642014 509.0 (m) ROCKET BODY
CZ-6A DEB LEO 2024-10-07 22:03:52 0.0001251009 639.0 (m) DEBRIS

Associated space launch

Military communications satellite. Destroyed in a collision with Iridium 33.

COSMOS 2251 DEB was lifted into orbit during the mission ‘Kosmos-3M | Strela-2M 51’, on board a Kosmos-3M space rocket.

The launch took place on June 16, 1993, 4:17 a.m. from 132/1 (132L).

For more information about the launch, click the button.

Launch to space Kosmos-3M | Strela-2M 51
Kosmos-3M | Strela-2M 51

Agency: N/A

Status: Launch Successful

Launch date: June 16, 1993, 4:17 a.m. UTC

Rocket: Kosmos-3M

Launch pad: 132/1 (132L)

Location: Plesetsk Cosmodrome, Russian Federation

...

Latest news about this satellite

There are no fresh news available about this satellite. Check back as we update our databases every day.


Newsletter sign-up

Weekly statistics, charts and insights to help you stay on top of the space industry.